Home   Weather   Augsburg   Past weeks

Flag for Germany Past Weather in Augsburg, Bavaria, Germany — Yesterday and Last 2 Weeks

Now
55 °F

Light rain. Mostly cloudy.


Feels Like: 52 °F
Forecast: 56 / 66 °F
Wind: 15 mph from West

Location: Augsburg Airport

Current Time: Jul 26, 2017 at 12:44:09 pm

Latest Report: Jul 26, 2017 at 11:50 am


Visibility: 6 mi

Pressure: 29.80 "Hg

Humidity: 94%

Dew Point: 54 °F

Location of AugsburgLocation

Past Weather in Augsburg — Graph

°F

Augsburg Temperature Yesterday

Maximum temperature yesterday: 61 °F (at 12:20 pm)
Minimum temperature yesterday: 52 °F (at 12:50 am)
Average temperature yesterday: 55 °F

High & Low Weather Summary for the Past Weeks

 TemperatureHumidityPressure
High90 °F (Jul 19, 6:20 pm)100% (Jul 11, 11:20 pm)30.30 "Hg (Jul 11, 11:20 pm)
Low45 °F (Jul 16, 5:20 am)31% (Jul 19, 2:50 pm)29.68 "Hg (Jul 26, 3:26 am)
Average64 °F73%30.03 "Hg
* Reported Jul 11 11:20 am — Jul 26 11:20 am, Augsburg. Weather by CustomWeather, © 2017

Note: Actual official high and low records may vary slightly from our data, if they occured in-between our weather recording intervals... More about our weather records

Advertising

Augsburg Weather History for the Previous 24 Hours

Scroll right to see more
 ConditionsComfort  
Time TempWeatherWind HumidityBarometerVisibility
11:20 am
Wed, Jul 26
55 °FMostly cloudy.16 mph94%29.77 "HgN/A
10:50 am55 °FLight rain. Mostly cloudy.15 mph94%29.77 "HgN/A
10:20 am55 °FDrizzle. Mostly cloudy.16 mph94%29.77 "HgN/A
9:20 am55 °FDrizzle. Mostly cloudy.13 mph94%29.74 "HgN/A
8:50 am55 °FLight rain. Mostly cloudy.16 mph94%29.74 "HgN/A
8:20 am55 °FLight rain. Partly sunny.14 mph94%29.74 "HgN/A
7:50 am55 °FLight rain. Partly sunny.13 mph94%29.74 "HgN/A
7:20 am55 °FLight rain. Mostly cloudy.13 mph94%29.71 "HgN/A
6:50 am54 °FLight rain. Mostly cloudy.14 mph100%29.71 "Hg3 mi
6:20 am55 °FLight rain. Mostly cloudy.17 mph88%29.71 "Hg5 mi
5:50 am55 °FLight rain. Mostly cloudy.17 mph94%29.71 "Hg4 mi
5:36 am54 °FMostly cloudy.17 mph100%29.68 "Hg3 mi
5:29 am54 °FOvercast.17 mph94%29.68 "Hg3 mi
5:20 am54 °FOvercast.16 mph94%29.68 "Hg6 mi
4:59 am54 °FMostly cloudy.18 mph94%29.68 "Hg3 mi
4:29 am54 °FOvercast.17 mph94%29.68 "Hg4 mi
3:55 am54 °FMostly cloudy.20 mph94%29.68 "HgN/A
3:26 am54 °FMostly cloudy.17 mph94%29.68 "Hg5 mi
2:55 am55 °FMostly cloudy.16 mph94%29.71 "Hg4 mi
2:20 am55 °FMostly cloudy.14 mph88%29.71 "HgN/A
1:50 am55 °FOvercast.13 mph94%29.74 "Hg6 mi
1:20 am54 °FMostly cloudy.13 mph100%29.74 "HgN/A
12:50 am54 °FOvercast.12 mph94%29.74 "Hg6 mi
12:20 am54 °FOvercast.15 mph94%29.77 "HgN/A
11:50 pm
Tue, Jul 25
54 °FMostly cloudy.14 mph94%29.77 "HgN/A
11:20 pm55 °FMostly cloudy.13 mph88%29.77 "HgN/A
10:50 pm55 °FOvercast.10 mph94%29.77 "HgN/A
10:20 pm55 °FMostly cloudy.12 mph94%29.80 "HgN/A
9:50 pm55 °FMostly cloudy.9 mph88%29.80 "HgN/A
9:29 pm55 °FMostly cloudy.9 mph88%29.80 "HgN/A
9:06 pm55 °FOvercast.7 mph94%29.80 "HgN/A
8:41 pm55 °FMore clouds than sun.9 mph94%29.80 "HgN/A
8:20 pm55 °FLight rain. More clouds than sun.8 mph94%29.80 "HgN/A
7:50 pm55 °FLight rain. Overcast.9 mph94%29.80 "HgN/A
7:20 pm55 °FLight rain. Mostly cloudy.9 mph94%29.80 "HgN/A
6:50 pm55 °FLight rain. Mostly cloudy.12 mph94%29.80 "HgN/A
6:20 pm55 °FLight rain. Mostly cloudy.13 mph88%29.80 "HgN/A
5:50 pm55 °FLight rain. More clouds than sun.13 mph88%29.80 "HgN/A
5:20 pm57 °FLight rain. Overcast.13 mph88%29.80 "HgN/A
4:50 pm57 °FLight rain. Overcast.13 mph88%29.80 "HgN/A
4:20 pm55 °FLight rain. Mostly cloudy.13 mph88%29.83 "HgN/A
3:50 pm57 °FLight rain. Mostly cloudy.15 mph82%29.80 "HgN/A
3:20 pm59 °FPartly sunny.18 mph72%29.80 "HgN/A
2:50 pm61 °FCloudy.18 mph72%29.80 "HgN/A
2:20 pm59 °FBroken clouds.15 mph82%29.80 "HgN/A
1:50 pm57 °FLight rain. Mostly cloudy.13 mph88%29.80 "HgN/A
1:20 pm57 °FRain. Partly sunny.15 mph88%29.80 "Hg6 mi
12:59 pm59 °FRain. Broken clouds.16 mph77%29.80 "HgN/A
12:20 pm61 °FMore clouds than sun.13 mph72%29.80 "HgN/A
Weather by CustomWeather, © 2017

See weather overviewHow to use our weather pages